Location: Newark
(54.8972°N, 99.8189°W)
Time: 20:25:12
(UTC+00:00)

OTV 5 (USA 277) - Visible Passes

Search period start: 14 October 2019 00:00
Search period end: 24 October 2019 00:00
Orbit: 310 x 324 km, 54.5° (Epoch: 08 October)

Date Brightness Start Highest point End Pass type
(mag) Time Alt. Az. Time Alt. Az. Time Alt. Az.
14 Oct ? 11:13:20 71° SW 11:13:27 73° S 11:16:11 10° ESE visible
15 Oct ? 11:27:32 45° SW 11:27:58 51° SSW 11:30:38 10° ESE visible
16 Oct ? 10:10:53 11° E 10:10:53 11° E 10:11:02 10° E visible
16 Oct ? 11:41:47 28° SW 11:42:25 32° SSW 11:44:55 10° SE visible
17 Oct ? 10:25:13 13° ESE 10:25:13 13° ESE 10:25:32 10° ESE visible
17 Oct ? 11:56:07 18° SW 11:56:47 19° SW 11:58:51 10° SSE visible
18 Oct ? 10:39:38 12° SE 10:39:38 12° SE 10:39:56 10° SE visible
18 Oct ? 12:10:32 10° SW 12:11:03 11° SW 12:11:45 10° SSW visible
